Location: *
(46.4000°N, 12.6667°E)
Time: 04:14:43
(UTC+00:00)

Envisat - Pass Details

Date: 11 December 2021
Orbit: 764 x 766 km, 98.2° (Epoch: 16 January)

Event Time Altitude Azimuth Distance (km) Brightness Sun altitude
Rises 02:51:50 0° 29° (NNE) 3,242 6.6 -38.7°
Reaches altitude 10° 02:55:04 10° 51° (NE) 2,310 6.0 -38.2°
Maximum altitude 02:58:11 16° 89° (E) 1,911 5.7 -37.6°
Drops below altitude 10° 03:01:16 10° 127° (SE) 2,298 5.9 -37.1°
Sets 03:04:27 0° 148° (SSE) 3,218 6.5 -36.6°
